Weather History for Columbus AFB, MS

Change the Weather History Date:

Friday, January 6, 2012

  Actual Average Record
Temperature  
Mean Temperature 47 °F -  
Max Temperature 69 °F 52 °F 69 °F (2012)
Min Temperature 25 °F 34 °F 12 °F (2014)
Degree Days  
Heating Degree Days 18    
Moisture  
Dew Point 42 °F    
Average Humidity 76    
Maximum Humidity 95    
Minimum Humidity 53    
Precipitation  
Precipitation 0.00 in - - ()
Sea Level Pressure  
Sea Level Pressure 30.08 in    
Wind  
Wind Speed 3 mph (South)    
Max Wind Speed 9 mph    
Max Gust Speed -    
Visibility 10 miles    
Events      
Averages and records for this station are not official NWS values.
T = Trace of Precipitation, MM = Missing Value Source: NWS Daily Summary

Daily Weather History Graph

Daily Weather History Graph

Search for Another Location

Airport:

Trip Planner

Search our weather history database for the weather conditions in past years. The results will help you decide how hot, cold, wet, or windy it might be!

Date:

Astronomy

Jan. 06, 2012 Rise Set
Actual Time 6:58 AM CST 5:00 PM CST
Civil Twilight 6:31 AM CST 5:27 PM CST
Nautical Twilight 6:00 AM CST 5:58 PM CST
Astronomical Twilight 5:30 AM CST 6:28 PM CST
Moon 2:51 PM CST (1/6) 4:37 AM CST (1/6)
Length of Visible Light 10h 55m
Length of Day
10h 01m
Waxing Gibbous, 93% of the Moon is Illuminated
Jan 6
Waxing Gibbous
Jan 9
Full
Jan 16
Last Quarter
Jan 23
New
Jan 30
First Quarter

Hourly Weather History & Observations

Time (CST) Temp. Windchill Dew Point Humidity Pressure Visibility Wind Dir Wind Speed Gust Speed Precip Events Conditions
12:55 AM 28.8 °F - 27.0 °F 93% 30.13 in 10.0 mi Calm Calm - N/A   Clear
1:55 AM 28.8 °F - 27.5 °F 95% 30.12 in 10.0 mi Calm Calm - N/A   Clear
2:55 AM 28.6 °F - 27.1 °F 94% 30.12 in 10.0 mi Calm Calm - N/A   Clear
3:55 AM 27.7 °F 22.4 °F 26.1 °F 94% 30.11 in 10.0 mi SSE 4.6 mph - N/A   Clear
4:55 AM 27.9 °F 24.0 °F 25.7 °F 92% 30.12 in 10.0 mi ESE 3.5 mph - N/A   Clear
5:55 AM 25.9 °F - 23.9 °F 92% 30.14 in 10.0 mi Calm Calm - N/A   Clear
6:55 AM 27.9 °F - 25.9 °F 92% 30.16 in 10.0 mi Calm Calm - N/A   Clear
7:25 AM 28.4 °F - 26.6 °F 93% 30.16 in 10.0 mi Calm Calm - N/A   Mostly Cloudy
7:55 AM 32.5 °F - 30.2 °F 91% 30.16 in 10.0 mi Calm Calm - N/A   Mostly Cloudy
8:02 AM 33.8 °F - 30.2 °F 87% 30.17 in 10.0 mi Calm Calm - N/A   Scattered Clouds
8:55 AM 41.0 °F 38.0 °F 35.6 °F 81% 30.17 in 10.0 mi SE 4.6 mph - N/A   Scattered Clouds
9:55 AM 50.4 °F - 37.0 °F 60% 30.17 in 10.0 mi South 4.6 mph - N/A   Scattered Clouds
10:55 AM 56.5 °F - 42.1 °F 59% 30.15 in 10.0 mi SW 4.6 mph - N/A   Mostly Cloudy
11:55 AM 63.0 °F - 47.8 °F 58% 30.11 in 10.0 mi Variable 4.6 mph - N/A   Scattered Clouds
12:55 PM 65.7 °F - 49.8 °F 57% 30.07 in 10.0 mi Variable 3.5 mph - N/A   Partly Cloudy
1:55 PM 69.3 °F - 52.3 °F 55% 30.04 in 10.0 mi South 8.1 mph - N/A   Scattered Clouds
2:27 PM 69.8 °F - 51.8 °F 53% 30.04 in 10.0 mi South 9.2 mph - N/A   Mostly Cloudy
2:33 PM 69.8 °F - 51.8 °F 53% 30.04 in 10.0 mi SSE 9.2 mph - N/A   Scattered Clouds
2:55 PM 69.8 °F - 52.5 °F 54% 30.03 in 10.0 mi North 6.9 mph - N/A   Scattered Clouds
3:55 PM 68.5 °F - 52.5 °F 57% 30.03 in 10.0 mi South 6.9 mph - N/A   Clear
4:55 PM 65.3 °F - 52.0 °F 62% 30.03 in 10.0 mi SSW 5.8 mph - N/A   Clear
5:55 PM 60.3 °F - 50.9 °F 71% 30.03 in 10.0 mi South 8.1 mph - N/A   Partly Cloudy
6:55 PM 59.4 °F - 50.5 °F 73% 30.03 in 10.0 mi SSW 6.9 mph - N/A   Partly Cloudy
7:55 PM 57.7 °F - 50.4 °F 76% 30.02 in 10.0 mi South 6.9 mph - N/A   Clear
8:44 PM 57.2 °F - 50.0 °F 77% 30.02 in 10.0 mi SSW 5.8 mph - N/A   Mostly Cloudy
8:55 PM 58.3 °F - 50.9 °F 76% 30.02 in 10.0 mi South 6.9 mph - N/A   Mostly Cloudy
8:57 PM 59.0 °F - 50.0 °F 72% 30.02 in 10.0 mi SSW 6.9 mph - N/A   Scattered Clouds
9:01 PM 59.0 °F - 51.8 °F 77% 30.02 in 10.0 mi SSW 6.9 mph - N/A   Mostly Cloudy
9:11 PM 59.0 °F - 51.8 °F 77% 30.02 in 10.0 mi South 6.9 mph - N/A   Scattered Clouds
9:55 PM 54.5 °F - 49.5 °F 83% 30.03 in 10.0 mi South 4.6 mph - N/A   Clear
10:55 PM 52.0 °F - 49.5 °F 91% 30.03 in 10.0 mi South 3.5 mph - N/A   Scattered Clouds
11:55 PM 54.7 °F - 52.0 °F 91% 30.02 in 10.0 mi South 5.8 mph - N/A   Clear